Voltar ao catálogo

STARLINK-34638

AtivoComunicaçõesVLEO
NORAD 64762·PAYLOAD·🇺🇸 United States

Lançado Jul 8, 2025 de Cape Canaveral Space Force Station

Loading…

Próximas Passagens (próximas 24 horas)

TLE

AtualizadoSource: CelesTrak SupGP

Época: Sep 14, 2026, 21:14 UTC

1 64762C 25147H   26257.88520833 -.00011520  00000+0 -34045-3 0  2579
2 64762  53.1577  79.8004 0001213  86.4898  37.4267 15.34389232    13

Acompanhe STARLINK-34638 em tempo real com AllMySat

Download on the App Store